Theta_e
328 327 326 328 329 328 328 334 339 337 332 327 324 321 319 318 318 317 314 311 310 308
321 326 327 327 329 328 327 333 339 336 330 324 320 320 319 317 314 313 312 307 306 305
316 320 326 326 327 326 330 332 333 333 325 321 320 317 315 312 310 308 307 307 305 305
318 322 326 325 327 330 328 325 322 320 318 318 316 315 313 311 309 306 305 305 304 302
321 322 322 326 325 324 321 320 319 318 318 317 314 312 310 308 306 304 303 303 302 302
322 323 323 325 324 321 319 318 318 319 315 313 310 307 306 304 303 302 302 302 301 301
320 321 319 318 318 318 318 318 314 311 309 308 306 304 303 302 301 301 302 303 302 300
320 320 318 317 317 316 315 311 309 307 306 304 304 303 301 301 300 300 300 300 303 302
317 316 315 314 312 311 310 308 307 305 303 301 302 301 302 300 298 298 298 297 298 302
313 310 310 309 308 306 306 305 304 303 303 301 300 299 299 300 298 297 297 297 298 300
309 306 306 305 305 304 304 303 302 302 301 299 298 297 297 299 297 296 296 296 296 298
306 305 304 302 301 301 300 299 298 298 297 296 296 297 297 297 296 295 295 297 296 297
306 304 301 300 299 299 298 296 296 295 296 297 296 296 296 296 296 294 294 295 295 297
303 301 300 299 298 296 296 295 295 295 296 296 296 295 295 296 296 294 294 294 293 294
Wind_Speed
6 4 4 5 4 4 4 5 6 8 6 7 8 9 9 5 6 7 7 10 5 4
2 3 4 6 5 4 3 4 7 7 8 10 10 12 12 10 8 9 7 6 6 6
6 5 3 4 5 3 3 2 4 8 7 9 12 14 14 11 12 12 7 4 10 7
6 5 2 3 1 2 2 3 5 6 8 10 12 14 13 13 11 15 12 6 9 8
6 5 1 1 2 4 5 7 7 8 9 12 14 14 15 14 11 13 10 8 9 6
8 6 4 3 4 7 8 9 10 9 12 15 14 15 14 15 14 12 11 6 6 6
7 4 5 6 6 7 8 11 12 12 12 15 16 14 14 14 16 14 10 8 6 8
5 4 6 7 6 7 10 12 14 15 14 14 15 9 14 12 13 14 12 9 5 6
5 5 6 8 9 10 11 11 12 13 15 14 9 17 18 14 12 12 11 8 7 4
6 7 6 9 11 10 10 11 13 13 13 15 11 16 15 15 10 10 8 8 6 7
7 8 7 10 11 10 10 12 11 13 12 11 9 12 14 16 11 11 9 7 7 10
9 9 8 10 10 10 11 12 11 11 12 12 10 13 13 12 9 11 9 8 7 10
9 10 10 11 11 11 12 13 11 13 12 15 9 8 8 10 5 12 9 9 10 16
10 11 12 13 12 13 14 15 12 12 8 9 7 5 10 12 7 8 9 7 7 6
Wind_Direction
208 197 210 212 207 248 235 236 212 213 158 133 121 109 97 71 88 101 82 65 25 64
354 255 226 221 218 232 253 244 219 192 165 148 136 125 116 109 94 91 83 81 83 70
341 334 219 221 225 262 296 199 186 166 155 137 128 117 111 107 101 96 73 60 84 64
340 324 151 189 207 233 102 109 94 113 117 117 118 114 105 103 101 107 94 83 85 76
348 334 141 136 101 74 80 81 90 99 111 106 99 96 100 103 103 90 103 104 101 96
4 359 7 62 94 113 108 99 101 108 113 106 105 107 109 107 113 107 82 69 82 91
359 22 46 54 63 96 104 104 92 94 103 108 107 104 111 110 104 88 86 77 69 72
19 52 80 76 72 83 93 101 107 106 100 99 104 112 112 107 101 104 95 72 67 91
49 60 76 87 81 90 93 95 100 102 103 102 101 117 112 109 97 96 99 115 94 83
101 80 78 88 88 88 89 97 99 102 107 109 120 117 109 100 99 111 102 101 118 112
108 100 100 101 101 95 97 97 97 98 99 103 96 87 95 100 95 91 84 84 105 113
123 121 110 99 97 97 96 86 81 81 82 84 85 81 88 90 97 85 79 74 86 93
123 116 109 104 95 94 91 90 87 84 78 95 98 76 78 93 114 93 80 68 64 71
110 109 107 101 97 102 99 94 92 93 89 85 84 79 75 72 87 94 81 67 64 60